Year,Month,Day,Hour,Minute,Value (Times are PST for insolation in W/m^2)
2017,01,11,00,00,0.00
2017,01,11,00,01,0.00
2017,01,11,00,02,0.00
2017,01,11,00,03,0.00
2017,01,11,00,04,0.00
2017,01,11,00,05,0.00
2017,01,11,00,06,0.00
2017,01,11,00,07,0.00
2017,01,11,00,08,0.00
2017,01,11,00,09,0.00
2017,01,11,00,10,0.00
2017,01,11,00,11,0.00
2017,01,11,00,12,0.00
2017,01,11,00,13,0.00
2017,01,11,00,14,0.00
2017,01,11,00,15,0.00
2017,01,11,00,16,0.00
2017,01,11,00,17,0.00
2017,01,11,00,18,0.00
2017,01,11,00,19,0.00
2017,01,11,00,20,0.00
2017,01,11,00,21,0.00
2017,01,11,00,22,0.00
2017,01,11,00,23,0.00
2017,01,11,00,24,0.00
2017,01,11,00,25,0.00
2017,01,11,00,26,0.00
2017,01,11,00,27,0.00
2017,01,11,00,28,0.00
2017,01,11,00,29,0.00
2017,01,11,00,30,0.00
2017,01,11,00,31,0.00
2017,01,11,00,32,0.00
2017,01,11,00,33,0.00
2017,01,11,00,34,0.00
2017,01,11,00,35,0.00
2017,01,11,00,36,0.00
2017,01,11,00,37,0.00
2017,01,11,00,38,0.00
2017,01,11,00,39,0.00
2017,01,11,00,40,0.00
2017,01,11,00,41,0.00
2017,01,11,00,42,0.00
2017,01,11,00,43,0.00
2017,01,11,00,44,0.00
2017,01,11,00,45,0.00
2017,01,11,00,46,0.00
2017,01,11,00,47,0.00
2017,01,11,00,48,0.00
2017,01,11,00,49,0.00
2017,01,11,00,50,0.00
2017,01,11,00,51,0.00
2017,01,11,00,52,0.00
2017,01,11,00,53,0.00
2017,01,11,00,54,0.00
2017,01,11,00,55,0.00
2017,01,11,00,56,0.00
2017,01,11,00,57,0.00
2017,01,11,00,58,0.00
2017,01,11,00,59,0.00
2017,01,11,01,00,0.00
2017,01,11,01,01,0.00
2017,01,11,01,02,0.00
2017,01,11,01,03,0.00
2017,01,11,01,04,0.00
2017,01,11,01,05,0.00
2017,01,11,01,06,0.00
2017,01,11,01,07,0.00
2017,01,11,01,08,0.00
2017,01,11,01,09,0.00
2017,01,11,01,10,0.00
2017,01,11,01,11,0.00
2017,01,11,01,12,0.00
2017,01,11,01,13,0.00
2017,01,11,01,14,0.00
2017,01,11,01,15,0.00
2017,01,11,01,16,0.00
2017,01,11,01,17,0.00
2017,01,11,01,18,0.00
2017,01,11,01,19,0.00
2017,01,11,01,20,0.00
2017,01,11,01,21,0.00
2017,01,11,01,22,0.00
2017,01,11,01,23,0.00
2017,01,11,01,24,0.00
2017,01,11,01,25,0.00
2017,01,11,01,26,0.00
2017,01,11,01,27,0.00
2017,01,11,01,28,0.00
2017,01,11,01,29,0.00
2017,01,11,01,30,0.00
2017,01,11,01,31,0.00
2017,01,11,01,32,0.00
2017,01,11,01,33,0.00
2017,01,11,01,34,0.00
2017,01,11,01,35,0.00
2017,01,11,01,36,0.00
2017,01,11,01,37,0.00
2017,01,11,01,38,0.00
2017,01,11,01,39,0.00
2017,01,11,01,40,0.00
2017,01,11,01,41,0.00
2017,01,11,01,42,0.00
2017,01,11,01,43,0.00
2017,01,11,01,44,0.00
2017,01,11,01,45,0.00
2017,01,11,01,46,0.00
2017,01,11,01,47,0.00
2017,01,11,01,48,0.00
2017,01,11,01,49,0.00
2017,01,11,01,50,0.00
2017,01,11,01,51,0.00
2017,01,11,01,52,0.00
2017,01,11,01,53,0.00
2017,01,11,01,54,0.00
2017,01,11,01,55,0.00
2017,01,11,01,56,0.00
2017,01,11,01,57,0.00
2017,01,11,01,58,0.00
2017,01,11,01,59,0.00
2017,01,11,02,00,0.00
2017,01,11,02,01,0.00
2017,01,11,02,02,0.00
2017,01,11,02,03,0.00
2017,01,11,02,04,0.00
2017,01,11,02,05,0.00
2017,01,11,02,06,0.00
2017,01,11,02,07,0.00
2017,01,11,02,08,0.00
2017,01,11,02,09,0.00
2017,01,11,02,10,0.00
2017,01,11,02,11,0.00
2017,01,11,02,12,0.00
2017,01,11,02,13,0.00
2017,01,11,02,14,0.00
2017,01,11,02,15,0.00
2017,01,11,02,16,0.00
2017,01,11,02,17,0.00
2017,01,11,02,18,0.00
2017,01,11,02,19,0.00
2017,01,11,02,20,0.00
2017,01,11,02,21,0.00
2017,01,11,02,22,0.00
2017,01,11,02,23,0.00
2017,01,11,02,24,0.00
2017,01,11,02,25,0.00
2017,01,11,02,26,0.00
2017,01,11,02,27,0.00
2017,01,11,02,28,0.00
2017,01,11,02,29,0.00
2017,01,11,02,30,0.00
2017,01,11,02,31,0.00
2017,01,11,02,32,0.00
2017,01,11,02,33,0.00
2017,01,11,02,34,0.00
2017,01,11,02,35,0.00
2017,01,11,02,36,0.00
2017,01,11,02,37,0.00
2017,01,11,02,38,0.00
2017,01,11,02,39,0.00
2017,01,11,02,40,0.00
2017,01,11,02,41,0.00
2017,01,11,02,42,0.00
2017,01,11,02,43,0.00
2017,01,11,02,44,0.00
2017,01,11,02,45,0.00
2017,01,11,02,46,0.00
2017,01,11,02,47,0.00
2017,01,11,02,48,0.00
2017,01,11,02,49,0.00
2017,01,11,02,50,0.00
2017,01,11,02,51,0.00
2017,01,11,02,52,0.00
2017,01,11,02,53,0.00
2017,01,11,02,54,0.00
2017,01,11,02,55,0.00
2017,01,11,02,56,0.00
2017,01,11,02,57,0.00
2017,01,11,02,58,0.00
2017,01,11,02,59,0.00
2017,01,11,03,00,0.00
2017,01,11,03,01,0.00
2017,01,11,03,02,0.00
2017,01,11,03,03,0.00
2017,01,11,03,04,0.00
2017,01,11,03,05,0.00
2017,01,11,03,06,0.00
2017,01,11,03,07,0.00
2017,01,11,03,08,0.00
2017,01,11,03,09,0.00
2017,01,11,03,10,0.00
2017,01,11,03,11,0.00
2017,01,11,03,12,0.00
2017,01,11,03,13,0.00
2017,01,11,03,14,0.00
2017,01,11,03,15,0.00
2017,01,11,03,16,0.00
2017,01,11,03,17,0.00
2017,01,11,03,18,0.00
2017,01,11,03,19,0.00
2017,01,11,03,20,0.00
2017,01,11,03,21,0.00
2017,01,11,03,22,0.00
2017,01,11,03,23,0.00
2017,01,11,03,24,0.00
2017,01,11,03,25,0.00
2017,01,11,03,26,0.00
2017,01,11,03,27,0.00
2017,01,11,03,28,0.00
2017,01,11,03,29,0.00
2017,01,11,03,30,0.00
2017,01,11,03,31,0.00
2017,01,11,03,32,0.00
2017,01,11,03,33,0.00
2017,01,11,03,34,0.00
2017,01,11,03,35,0.00
2017,01,11,03,36,0.00
2017,01,11,03,37,0.00
2017,01,11,03,38,0.00
2017,01,11,03,39,0.00
2017,01,11,03,40,0.00
2017,01,11,03,41,0.00
2017,01,11,03,42,0.00
2017,01,11,03,43,0.00
2017,01,11,03,44,0.00
2017,01,11,03,45,0.00
2017,01,11,03,46,0.00
2017,01,11,03,47,0.00
2017,01,11,03,48,0.00
2017,01,11,03,49,0.00
2017,01,11,03,50,0.00
2017,01,11,03,51,0.00
2017,01,11,03,52,0.00
2017,01,11,03,53,0.00
2017,01,11,03,54,0.00
2017,01,11,03,55,0.00
2017,01,11,03,56,0.00
2017,01,11,03,57,0.00
2017,01,11,03,58,0.00
2017,01,11,03,59,0.00
2017,01,11,04,00,0.00
2017,01,11,04,01,0.00
2017,01,11,04,02,0.00
2017,01,11,04,03,0.00
2017,01,11,04,04,0.00
2017,01,11,04,05,0.00
2017,01,11,04,06,0.00
2017,01,11,04,07,0.00
2017,01,11,04,08,0.00
2017,01,11,04,09,0.00
2017,01,11,04,10,0.00
2017,01,11,04,11,0.00
2017,01,11,04,12,0.00
2017,01,11,04,13,0.00
2017,01,11,04,14,0.00
2017,01,11,04,15,0.00
2017,01,11,04,16,0.00
2017,01,11,04,17,0.00
2017,01,11,04,18,0.00
2017,01,11,04,19,0.00
2017,01,11,04,20,0.00
2017,01,11,04,21,0.00
2017,01,11,04,22,0.00
2017,01,11,04,23,0.00
2017,01,11,04,24,0.00
2017,01,11,04,25,0.00
2017,01,11,04,26,0.00
2017,01,11,04,27,0.00
2017,01,11,04,28,0.00
2017,01,11,04,29,0.00
2017,01,11,04,30,0.00
2017,01,11,04,31,0.00
2017,01,11,04,32,0.00
2017,01,11,04,33,0.00
2017,01,11,04,34,0.00
2017,01,11,04,35,0.00
2017,01,11,04,36,0.00
2017,01,11,04,37,0.00
2017,01,11,04,38,0.00
2017,01,11,04,39,0.00
2017,01,11,04,40,0.00
2017,01,11,04,41,0.00
2017,01,11,04,42,0.00
2017,01,11,04,43,0.00
2017,01,11,04,44,0.00
2017,01,11,04,45,0.00
2017,01,11,04,46,0.00
2017,01,11,04,47,0.00
2017,01,11,04,48,0.00
2017,01,11,04,49,0.00
2017,01,11,04,50,0.00
2017,01,11,04,51,0.00
2017,01,11,04,52,0.00
2017,01,11,04,53,0.00
2017,01,11,04,54,0.00
2017,01,11,04,55,0.00
2017,01,11,04,56,0.00
2017,01,11,04,57,0.00
2017,01,11,04,58,0.00
2017,01,11,04,59,0.00
2017,01,11,05,00,0.00
2017,01,11,05,01,0.00
2017,01,11,05,02,0.00
2017,01,11,05,03,0.00
2017,01,11,05,04,0.00
2017,01,11,05,05,0.00
2017,01,11,05,06,0.00
2017,01,11,05,07,0.00
2017,01,11,05,08,0.00
2017,01,11,05,09,0.00
2017,01,11,05,10,0.00
2017,01,11,05,11,0.00
2017,01,11,05,12,0.00
2017,01,11,05,13,0.00
2017,01,11,05,14,0.00
2017,01,11,05,15,0.00
2017,01,11,05,16,0.00
2017,01,11,05,17,0.00
2017,01,11,05,18,0.00
2017,01,11,05,19,0.00
2017,01,11,05,20,0.00
2017,01,11,05,21,0.00
2017,01,11,05,22,0.00
2017,01,11,05,23,0.00
2017,01,11,05,24,0.00
2017,01,11,05,25,0.00
2017,01,11,05,26,0.00
2017,01,11,05,27,0.00
2017,01,11,05,28,0.00
2017,01,11,05,29,0.00
2017,01,11,05,30,0.00
2017,01,11,05,31,0.00
2017,01,11,05,32,0.00
2017,01,11,05,33,0.00
2017,01,11,05,34,0.00
2017,01,11,05,35,0.00
2017,01,11,05,36,0.00
2017,01,11,05,37,0.00
2017,01,11,05,38,0.00
2017,01,11,05,39,0.00
2017,01,11,05,40,0.00
2017,01,11,05,41,0.00
2017,01,11,05,42,0.00
2017,01,11,05,43,0.00
2017,01,11,05,44,0.00
2017,01,11,05,45,0.00
2017,01,11,05,46,0.00
2017,01,11,05,47,0.00
2017,01,11,05,48,0.00
2017,01,11,05,49,0.00
2017,01,11,05,50,0.00
2017,01,11,05,51,0.00
2017,01,11,05,52,0.00
2017,01,11,05,53,0.00
2017,01,11,05,54,0.00
2017,01,11,05,55,0.00
2017,01,11,05,56,0.00
2017,01,11,05,57,0.00
2017,01,11,05,58,0.00
2017,01,11,05,59,0.00
2017,01,11,06,00,0.00
2017,01,11,06,01,0.00
2017,01,11,06,02,0.00
2017,01,11,06,03,0.00
2017,01,11,06,04,0.00
2017,01,11,06,05,0.00
2017,01,11,06,06,0.00
2017,01,11,06,07,0.00
2017,01,11,06,08,0.00
2017,01,11,06,09,0.00
2017,01,11,06,10,0.00
2017,01,11,06,11,0.00
2017,01,11,06,12,0.00
2017,01,11,06,13,0.00
2017,01,11,06,14,0.00
2017,01,11,06,15,0.00
2017,01,11,06,16,0.00
2017,01,11,06,17,0.00
2017,01,11,06,18,0.00
2017,01,11,06,19,0.00
2017,01,11,06,20,0.00
2017,01,11,06,21,0.00
2017,01,11,06,22,0.00
2017,01,11,06,23,0.00
2017,01,11,06,24,0.00
2017,01,11,06,25,0.00
2017,01,11,06,26,0.00
2017,01,11,06,27,0.00
2017,01,11,06,28,0.00
2017,01,11,06,29,0.00
2017,01,11,06,30,0.00
2017,01,11,06,31,0.00
2017,01,11,06,32,0.00
2017,01,11,06,33,0.00
2017,01,11,06,34,0.00
2017,01,11,06,35,0.00
2017,01,11,06,36,0.00
2017,01,11,06,37,0.00
2017,01,11,06,38,0.00
2017,01,11,06,39,0.00
2017,01,11,06,40,0.00
2017,01,11,06,41,0.00
2017,01,11,06,42,0.00
2017,01,11,06,43,0.00
2017,01,11,06,44,0.00
2017,01,11,06,45,0.00
2017,01,11,06,46,0.00
2017,01,11,06,47,0.00
2017,01,11,06,48,0.00
2017,01,11,06,49,0.00
2017,01,11,06,50,0.00
2017,01,11,06,51,0.00
2017,01,11,06,52,0.00
2017,01,11,06,53,0.00
2017,01,11,06,54,0.00
2017,01,11,06,55,0.00
2017,01,11,06,56,0.00
2017,01,11,06,57,0.00
2017,01,11,06,58,0.00
2017,01,11,06,59,0.00
2017,01,11,07,00,0.00
2017,01,11,07,01,0.00
2017,01,11,07,02,0.00
2017,01,11,07,03,0.00
2017,01,11,07,04,0.00
2017,01,11,07,05,0.00
2017,01,11,07,06,0.00
2017,01,11,07,07,0.00
2017,01,11,07,08,0.00
2017,01,11,07,09,0.00
2017,01,11,07,10,0.00
2017,01,11,07,11,0.00
2017,01,11,07,12,0.00
2017,01,11,07,13,0.00
2017,01,11,07,14,0.00
2017,01,11,07,15,0.00
2017,01,11,07,16,0.00
2017,01,11,07,17,0.00
2017,01,11,07,18,0.00
2017,01,11,07,19,0.00
2017,01,11,07,20,0.00
2017,01,11,07,21,0.00
2017,01,11,07,22,0.00
2017,01,11,07,23,0.00
2017,01,11,07,24,0.00
2017,01,11,07,25,0.00
2017,01,11,07,26,0.00
2017,01,11,07,27,0.00
2017,01,11,07,28,0.00
2017,01,11,07,29,0.00
2017,01,11,07,30,0.00
2017,01,11,07,31,0.00
2017,01,11,07,32,0.00
2017,01,11,07,33,0.00
2017,01,11,07,34,0.00
2017,01,11,07,35,0.00
2017,01,11,07,36,0.00
2017,01,11,07,37,0.00
2017,01,11,07,38,0.00
2017,01,11,07,39,0.00
2017,01,11,07,40,0.00
2017,01,11,07,41,0.00
2017,01,11,07,42,0.00
2017,01,11,07,43,0.00
2017,01,11,07,44,0.00
2017,01,11,07,45,0.00
2017,01,11,07,46,0.00
2017,01,11,07,47,0.00
2017,01,11,07,48,0.00
2017,01,11,07,49,0.00
2017,01,11,07,50,0.00
2017,01,11,07,51,0.00
2017,01,11,07,52,0.00
2017,01,11,07,53,0.00
2017,01,11,07,54,0.00
2017,01,11,07,55,0.00
2017,01,11,07,56,0.00
2017,01,11,07,57,0.00
2017,01,11,07,58,0.00
2017,01,11,07,59,0.00
2017,01,11,08,00,0.00
2017,01,11,08,01,0.00
2017,01,11,08,02,0.00
2017,01,11,08,03,0.00
2017,01,11,08,04,0.00
2017,01,11,08,05,0.00
2017,01,11,08,06,0.00
2017,01,11,08,07,1.80
2017,01,11,08,08,5.00
2017,01,11,08,09,5.00
2017,01,11,08,10,5.00
2017,01,11,08,11,5.00
2017,01,11,08,12,5.00
2017,01,11,08,13,5.40
2017,01,11,08,14,7.00
2017,01,11,08,15,7.00
2017,01,11,08,16,7.00
2017,01,11,08,17,7.00
2017,01,11,08,18,7.00
2017,01,11,08,19,9.00
2017,01,11,08,20,9.00
2017,01,11,08,21,9.00
2017,01,11,08,22,9.00
2017,01,11,08,23,9.00
2017,01,11,08,24,9.00
2017,01,11,08,25,10.70
2017,01,11,08,26,11.00
2017,01,11,08,27,11.00
2017,01,11,08,28,11.00
2017,01,11,08,29,11.00
2017,01,11,08,30,11.00
2017,01,11,08,31,11.70
2017,01,11,08,32,12.00
2017,01,11,08,33,12.00
2017,01,11,08,34,12.00
2017,01,11,08,35,12.00
2017,01,11,08,36,12.00
2017,01,11,08,37,12.00
2017,01,11,08,38,13.50
2017,01,11,08,39,14.00
2017,01,11,08,40,14.00
2017,01,11,08,41,14.00
2017,01,11,08,42,14.00
2017,01,11,08,43,14.00
2017,01,11,08,44,14.00
2017,01,11,08,45,14.00
2017,01,11,08,46,15.70
2017,01,11,08,47,16.00
2017,01,11,08,48,16.00
2017,01,11,08,49,16.00
2017,01,11,08,50,16.00
2017,01,11,08,51,16.00
2017,01,11,08,52,16.00
2017,01,11,08,53,16.00
2017,01,11,08,54,17.90
2017,01,11,08,55,18.00
2017,01,11,08,56,18.00
2017,01,11,08,57,18.00
2017,01,11,08,58,18.00
2017,01,11,08,59,18.00
2017,01,11,09,00,18.00
2017,01,11,09,01,18.00
2017,01,11,09,02,18.00
2017,01,11,09,03,18.00
2017,01,11,09,04,18.50
2017,01,11,09,05,19.00
2017,01,11,09,06,19.00
2017,01,11,09,07,19.00
2017,01,11,09,08,19.00
2017,01,11,09,09,19.00
2017,01,11,09,10,19.00
2017,01,11,09,11,19.00
2017,01,11,09,12,19.00
2017,01,11,09,13,19.00
2017,01,11,09,14,20.70
2017,01,11,09,15,21.00
2017,01,11,09,16,21.00
2017,01,11,09,17,21.00
2017,01,11,09,18,23.20
2017,01,11,09,19,28.30
2017,01,11,09,20,28.60
2017,01,11,09,21,28.00
2017,01,11,09,22,28.20
2017,01,11,09,23,30.40
2017,01,11,09,24,32.30
2017,01,11,09,25,34.00
2017,01,11,09,26,39.30
2017,01,11,09,27,54.90
2017,01,11,09,28,79.90
2017,01,11,09,29,110.10
2017,01,11,09,30,113.90
2017,01,11,09,31,124.40
2017,01,11,09,32,129.30
2017,01,11,09,33,134.90
2017,01,11,09,34,138.40
2017,01,11,09,35,141.50
2017,01,11,09,36,144.10
2017,01,11,09,37,146.40
2017,01,11,09,38,148.30
2017,01,11,09,39,150.00
2017,01,11,09,40,153.40
2017,01,11,09,41,155.70
2017,01,11,09,42,159.30
2017,01,11,09,43,162.00
2017,01,11,09,44,163.00
2017,01,11,09,45,165.10
2017,01,11,09,46,170.30
2017,01,11,09,47,173.20
2017,01,11,09,48,175.40
2017,01,11,09,49,178.60
2017,01,11,09,50,186.40
2017,01,11,09,51,194.50
2017,01,11,09,52,207.40
2017,01,11,09,53,214.00
2017,01,11,09,54,212.20
2017,01,11,09,55,202.30
2017,01,11,09,56,199.90
2017,01,11,09,57,199.00
2017,01,11,09,58,199.00
2017,01,11,09,59,198.30
2017,01,11,10,00,197.00
2017,01,11,10,01,198.20
2017,01,11,10,02,199.00
2017,01,11,10,03,199.00
2017,01,11,10,04,200.20
2017,01,11,10,05,202.50
2017,01,11,10,06,204.00
2017,01,11,10,07,204.90
2017,01,11,10,08,206.60
2017,01,11,10,09,208.40
2017,01,11,10,10,210.70
2017,01,11,10,11,211.20
2017,01,11,10,12,213.20
2017,01,11,10,13,214.00
2017,01,11,10,14,215.00
2017,01,11,10,15,217.20
2017,01,11,10,16,219.40
2017,01,11,10,17,220.80
2017,01,11,10,18,223.30
2017,01,11,10,19,227.40
2017,01,11,10,20,229.00
2017,01,11,10,21,230.40
2017,01,11,10,22,232.00
2017,01,11,10,23,233.40
2017,01,11,10,24,235.70
2017,01,11,10,25,237.00
2017,01,11,10,26,238.00
2017,01,11,10,27,241.00
2017,01,11,10,28,241.90
2017,01,11,10,29,243.00
2017,01,11,10,30,243.70
2017,01,11,10,31,245.70
2017,01,11,10,32,248.10
2017,01,11,10,33,250.20
2017,01,11,10,34,251.70
2017,01,11,10,35,256.40
2017,01,11,10,36,260.00
2017,01,11,10,37,261.40
2017,01,11,10,38,262.00
2017,01,11,10,39,264.30
2017,01,11,10,40,267.50
2017,01,11,10,41,270.10
2017,01,11,10,42,272.90
2017,01,11,10,43,272.80
2017,01,11,10,44,272.00
2017,01,11,10,45,273.70
2017,01,11,10,46,279.00
2017,01,11,10,47,279.90
2017,01,11,10,48,283.00
2017,01,11,10,49,283.90
2017,01,11,10,50,285.00
2017,01,11,10,51,282.20
2017,01,11,10,52,281.00
2017,01,11,10,53,285.40
2017,01,11,10,54,290.00
2017,01,11,10,55,291.40
2017,01,11,10,56,297.10
2017,01,11,10,57,299.80
2017,01,11,10,58,299.00
2017,01,11,10,59,301.60
2017,01,11,11,00,305.90
2017,01,11,11,01,304.00
2017,01,11,11,02,305.70
2017,01,11,11,03,309.00
2017,01,11,11,04,311.30
2017,01,11,11,05,313.00
2017,01,11,11,06,313.00
2017,01,11,11,07,311.50
2017,01,11,11,08,315.20
2017,01,11,11,09,316.00
2017,01,11,11,10,317.00
2017,01,11,11,11,319.20
2017,01,11,11,12,321.40
2017,01,11,11,13,324.50
2017,01,11,11,14,328.40
2017,01,11,11,15,325.00
2017,01,11,11,16,326.40
2017,01,11,11,17,329.00
2017,01,11,11,18,329.60
2017,01,11,11,19,331.40
2017,01,11,11,20,333.70
2017,01,11,11,21,334.20
2017,01,11,11,22,336.00
2017,01,11,11,23,336.70
2017,01,11,11,24,339.30
2017,01,11,11,25,347.40
2017,01,11,11,26,346.90
2017,01,11,11,27,347.60
2017,01,11,11,28,354.00
2017,01,11,11,29,345.20
2017,01,11,11,30,349.10
2017,01,11,11,31,352.60
2017,01,11,11,32,348.80
2017,01,11,11,33,351.60
2017,01,11,11,34,358.00
2017,01,11,11,35,356.90
2017,01,11,11,36,355.00
2017,01,11,11,37,354.30
2017,01,11,11,38,353.00
2017,01,11,11,39,354.20
2017,01,11,11,40,355.00
2017,01,11,11,41,356.70
2017,01,11,11,42,359.40
2017,01,11,11,43,355.50
2017,01,11,11,44,357.70
2017,01,11,11,45,358.10
2017,01,11,11,46,358.80
2017,01,11,11,47,347.70
2017,01,11,11,48,351.60
2017,01,11,11,49,357.00
2017,01,11,11,50,357.60
2017,01,11,11,51,357.20
2017,01,11,11,52,353.40
2017,01,11,11,53,356.20
2017,01,11,11,54,362.20
2017,01,11,11,55,368.10
2017,01,11,11,56,369.00
2017,01,11,11,57,369.50
2017,01,11,11,58,370.30
2017,01,11,11,59,365.80
2017,01,11,12,00,359.10
2017,01,11,12,01,358.40
2017,01,11,12,02,363.30
2017,01,11,12,03,366.40
2017,01,11,12,04,370.20
2017,01,11,12,05,367.00
2017,01,11,12,06,367.00
2017,01,11,12,07,367.00
2017,01,11,12,08,366.30
2017,01,11,12,09,368.60
2017,01,11,12,10,369.00
2017,01,11,12,11,368.40
2017,01,11,12,12,366.30
2017,01,11,12,13,366.50
2017,01,11,12,14,366.00
2017,01,11,12,15,366.70
2017,01,11,12,16,368.70
2017,01,11,12,17,368.80
2017,01,11,12,18,366.30
2017,01,11,12,19,367.40
2017,01,11,12,20,373.50
2017,01,11,12,21,368.90
2017,01,11,12,22,371.80
2017,01,11,12,23,373.10
2017,01,11,12,24,372.40
2017,01,11,12,25,365.80
2017,01,11,12,26,358.80
2017,01,11,12,27,357.90
2017,01,11,12,28,365.80
2017,01,11,12,29,369.90
2017,01,11,12,30,365.00
2017,01,11,12,31,369.20
2017,01,11,12,32,372.20
2017,01,11,12,33,369.00
2017,01,11,12,34,365.60
2017,01,11,12,35,368.80
2017,01,11,12,36,368.00
2017,01,11,12,37,366.00
2017,01,11,12,38,359.60
2017,01,11,12,39,360.80
2017,01,11,12,40,353.10
2017,01,11,12,41,351.80
2017,01,11,12,42,363.10
2017,01,11,12,43,363.10
2017,01,11,12,44,369.80
2017,01,11,12,45,357.30
2017,01,11,12,46,358.90
2017,01,11,12,47,368.50
2017,01,11,12,48,366.40
2017,01,11,12,49,360.50
2017,01,11,12,50,348.50
2017,01,11,12,51,353.70
2017,01,11,12,52,359.30
2017,01,11,12,53,366.20
2017,01,11,12,54,362.90
2017,01,11,12,55,357.40
2017,01,11,12,56,363.50
2017,01,11,12,57,364.60
2017,01,11,12,58,360.60
2017,01,11,12,59,363.60
2017,01,11,13,00,359.80
2017,01,11,13,01,356.90
2017,01,11,13,02,356.40
2017,01,11,13,03,364.20
2017,01,11,13,04,367.00
2017,01,11,13,05,368.70
2017,01,11,13,06,368.80
2017,01,11,13,07,366.80
2017,01,11,13,08,364.60
2017,01,11,13,09,363.90
2017,01,11,13,10,364.80
2017,01,11,13,11,360.40
2017,01,11,13,12,361.50
2017,01,11,13,13,362.20
2017,01,11,13,14,363.00
2017,01,11,13,15,359.60
2017,01,11,13,16,355.00
2017,01,11,13,17,348.80
2017,01,11,13,18,351.60
2017,01,11,13,19,356.40
2017,01,11,13,20,352.50
2017,01,11,13,21,357.00
2017,01,11,13,22,356.30
2017,01,11,13,23,354.10
2017,01,11,13,24,354.20
2017,01,11,13,25,356.40
2017,01,11,13,26,357.00
2017,01,11,13,27,353.00
2017,01,11,13,28,353.40
2017,01,11,13,29,355.00
2017,01,11,13,30,352.60
2017,01,11,13,31,348.80
2017,01,11,13,32,349.40
2017,01,11,13,33,350.00
2017,01,11,13,34,351.80
2017,01,11,13,35,348.10
2017,01,11,13,36,341.00
2017,01,11,13,37,341.00
2017,01,11,13,38,341.00
2017,01,11,13,39,338.80
2017,01,11,13,40,336.30
2017,01,11,13,41,336.10
2017,01,11,13,42,338.00
2017,01,11,13,43,338.30
2017,01,11,13,44,338.50
2017,01,11,13,45,338.00
2017,01,11,13,46,338.00
2017,01,11,13,47,336.30
2017,01,11,13,48,334.10
2017,01,11,13,49,333.60
2017,01,11,13,50,331.30
2017,01,11,13,51,329.50
2017,01,11,13,52,326.60
2017,01,11,13,53,321.60
2017,01,11,13,54,320.00
2017,01,11,13,55,320.00
2017,01,11,13,56,320.00
2017,01,11,13,57,319.30
2017,01,11,13,58,317.00
2017,01,11,13,59,316.00
2017,01,11,14,00,317.40
2017,01,11,14,01,316.30
2017,01,11,14,02,315.00
2017,01,11,14,03,314.60
2017,01,11,14,04,313.00
2017,01,11,14,05,313.00
2017,01,11,14,06,313.00
2017,01,11,14,07,311.60
2017,01,11,14,08,311.00
2017,01,11,14,09,308.90
2017,01,11,14,10,307.60
2017,01,11,14,11,305.30
2017,01,11,14,12,303.00
2017,01,11,14,13,301.40
2017,01,11,14,14,298.10
2017,01,11,14,15,297.00
2017,01,11,14,16,296.70
2017,01,11,14,17,293.50
2017,01,11,14,18,292.00
2017,01,11,14,19,289.80
2017,01,11,14,20,287.00
2017,01,11,14,21,287.00
2017,01,11,14,22,285.30
2017,01,11,14,23,283.10
2017,01,11,14,24,282.50
2017,01,11,14,25,280.30
2017,01,11,14,26,278.50
2017,01,11,14,27,276.80
2017,01,11,14,28,274.60
2017,01,11,14,29,272.30
2017,01,11,14,30,271.70
2017,01,11,14,31,268.60
2017,01,11,14,32,266.30
2017,01,11,14,33,264.50
2017,01,11,14,34,262.80
2017,01,11,14,35,262.00
2017,01,11,14,36,260.30
2017,01,11,14,37,257.90
2017,01,11,14,38,256.60
2017,01,11,14,39,254.30
2017,01,11,14,40,252.10
2017,01,11,14,41,250.40
2017,01,11,14,42,248.60
2017,01,11,14,43,246.30
2017,01,11,14,44,244.00
2017,01,11,14,45,242.10
2017,01,11,14,46,238.30
2017,01,11,14,47,236.50
2017,01,11,14,48,234.80
2017,01,11,14,49,232.60
2017,01,11,14,50,230.30
2017,01,11,14,51,228.80
2017,01,11,14,52,226.00
2017,01,11,14,53,223.00
2017,01,11,14,54,220.80
2017,01,11,14,55,218.00
2017,01,11,14,56,216.60
2017,01,11,14,57,210.00
2017,01,11,14,58,208.80
2017,01,11,14,59,206.80
2017,01,11,15,00,204.60
2017,01,11,15,01,201.10
2017,01,11,15,02,200.00
2017,01,11,15,03,197.80
2017,01,11,15,04,195.30
2017,01,11,15,05,192.80
2017,01,11,15,06,189.60
2017,01,11,15,07,187.30
2017,01,11,15,08,184.60
2017,01,11,15,09,181.80
2017,01,11,15,10,179.60
2017,01,11,15,11,176.40
2017,01,11,15,12,173.90
2017,01,11,15,13,171.80
2017,01,11,15,14,170.30
2017,01,11,15,15,168.00
2017,01,11,15,16,164.70
2017,01,11,15,17,162.30
2017,01,11,15,18,158.60
2017,01,11,15,19,155.90
2017,01,11,15,20,154.20
2017,01,11,15,21,150.30
2017,01,11,15,22,148.50
2017,01,11,15,23,146.80
2017,01,11,15,24,144.60
2017,01,11,15,25,141.40
2017,01,11,15,26,138.70
2017,01,11,15,27,134.80
2017,01,11,15,28,133.30
2017,01,11,15,29,130.00
2017,01,11,15,30,127.40
2017,01,11,15,31,125.60
2017,01,11,15,32,123.30
2017,01,11,15,33,119.90
2017,01,11,15,34,117.00
2017,01,11,15,35,113.70
2017,01,11,15,36,112.10
2017,01,11,15,37,109.80
2017,01,11,15,38,107.60
2017,01,11,15,39,105.30
2017,01,11,15,40,103.90
2017,01,11,15,41,101.20
2017,01,11,15,42,97.70
2017,01,11,15,43,96.00
2017,01,11,15,44,92.60
2017,01,11,15,45,90.30
2017,01,11,15,46,88.30
2017,01,11,15,47,85.90
2017,01,11,15,48,83.30
2017,01,11,15,49,80.30
2017,01,11,15,50,78.10
2017,01,11,15,51,76.40
2017,01,11,15,52,73.10
2017,01,11,15,53,69.40
2017,01,11,15,54,66.60
2017,01,11,15,55,58.60
2017,01,11,15,56,53.00
2017,01,11,15,57,56.10
2017,01,11,15,58,60.00
2017,01,11,15,59,58.60
2017,01,11,16,00,56.30
2017,01,11,16,01,44.90
2017,01,11,16,02,31.60
2017,01,11,16,03,32.40
2017,01,11,16,04,39.20
2017,01,11,16,05,43.20
2017,01,11,16,06,38.90
2017,01,11,16,07,27.10
2017,01,11,16,08,19.20
2017,01,11,16,09,19.00
2017,01,11,16,10,18.70
2017,01,11,16,11,18.40
2017,01,11,16,12,18.40
2017,01,11,16,13,16.60
2017,01,11,16,14,16.00
2017,01,11,16,15,16.00
2017,01,11,16,16,16.00
2017,01,11,16,17,16.00
2017,01,11,16,18,15.10
2017,01,11,16,19,14.00
2017,01,11,16,20,14.00
2017,01,11,16,21,14.00
2017,01,11,16,22,14.00
2017,01,11,16,23,14.00
2017,01,11,16,24,13.30
2017,01,11,16,25,12.00
2017,01,11,16,26,12.00
2017,01,11,16,27,12.00
2017,01,11,16,28,12.00
2017,01,11,16,29,12.00
2017,01,11,16,30,11.80
2017,01,11,16,31,11.00
2017,01,11,16,32,11.00
2017,01,11,16,33,11.00
2017,01,11,16,34,11.00
2017,01,11,16,35,11.00
2017,01,11,16,36,9.10
2017,01,11,16,37,9.00
2017,01,11,16,38,9.00
2017,01,11,16,39,9.00
2017,01,11,16,40,9.00
2017,01,11,16,41,7.60
2017,01,11,16,42,7.00
2017,01,11,16,43,7.00
2017,01,11,16,44,7.00
2017,01,11,16,45,7.00
2017,01,11,16,46,6.10
2017,01,11,16,47,5.00
2017,01,11,16,48,5.00
2017,01,11,16,49,5.00
2017,01,11,16,50,5.00
2017,01,11,16,51,5.00
2017,01,11,16,52,3.30
2017,01,11,16,53,0.00
2017,01,11,16,54,0.00
2017,01,11,16,55,0.00
2017,01,11,16,56,0.00
2017,01,11,16,57,0.00
2017,01,11,16,58,0.00
2017,01,11,16,59,0.00
2017,01,11,17,00,0.00
2017,01,11,17,01,0.00
2017,01,11,17,02,0.00
2017,01,11,17,03,0.00
2017,01,11,17,04,0.00
2017,01,11,17,05,0.00
2017,01,11,17,06,0.00
2017,01,11,17,07,0.00
2017,01,11,17,08,0.00
2017,01,11,17,09,0.00
2017,01,11,17,10,0.00
2017,01,11,17,11,0.00
2017,01,11,17,12,0.00
2017,01,11,17,13,0.00
2017,01,11,17,14,0.00
2017,01,11,17,15,0.00
2017,01,11,17,16,0.00
2017,01,11,17,17,0.00
2017,01,11,17,18,0.00
2017,01,11,17,19,0.00
2017,01,11,17,20,0.00
2017,01,11,17,21,0.00
2017,01,11,17,22,0.00
2017,01,11,17,23,0.00
2017,01,11,17,24,0.00
2017,01,11,17,25,0.00
2017,01,11,17,26,0.00
2017,01,11,17,27,0.00